Regional Weather Roundup
Issued by NWS Eureka, CA

Current Version | Previous Version | Text Only | Print | Product List | Glossary On
Versions: 1 2 3 4 5 6 7 8 9 10 11 12 13 14 15 16 17 18 19 20 21 22 23 24 25 26 27
000
ASUS46 KEKA 301210
RWREKA
Eureka Area Weather Roundup
National Weather Service Eureka CA
500 AM PDT FRI SEP 30 2022

Note: "fair" indicates few or no clouds below 12,000 feet with no
significant weather and/or obstructions to visibility.

Southwest Oregon...

CITY           SKY/WX    TMP DP  RH WIND       PRES   REMARKS
MEDFORD          N/A     51  45  79 CALM      30.13S
KLAMATH FALLS  CLEAR     45  40  82 N6        30.17F
NORTH BEND     FOG       55  55 100 N9        30.16S VSB 1/2
ROSEBURG       CLOUDY    61  55  81 CALM      30.14F
SEXTON SUMMIT  PTCLDY    47  46  97 NE9       30.15S FOG
BROOKINGS      CLEAR     67  49  52 NE9G18    30.00F

Northwest California...

CITY           SKY/WX    TMP DP  RH WIND       PRES   REMARKS
CRESCENT CITY  CLEAR     60  53  77 N9        29.98F
MCKINLEYVILLE  CLOUDY    51  51 100 CALM      29.96F
EUREKA         CLOUDY    56  50  81 E3        29.97F
FORTUNA        NOT AVBL
WEAVERVILLE    NOT AVBL
TRINITY CENTER NOT AVBL
UKIAH          CLEAR     56  50  80 CALM      29.93S

North & Central California...

CITY           SKY/WX    TMP DP  RH WIND       PRES   REMARKS
YREKA          CLEAR     46  37  71 CALM      30.13F
MOUNT SHASTA   CLEAR     43  37  79 CALM      30.13S
REDDING        CLEAR     72  42  34 N8        29.90S
RED BLUFF      CLEAR     72  41  32 NW9       29.89F
CHICO            N/A     57  45  62 CALM      29.87F
YUBA CITY      CLEAR     55  50  83 CALM      29.87S
SACRAMENTO     CLEAR     56  54  93 CALM      29.86S
SANTA ROSA     CLEAR     52  50  93 CALM      29.89S
NAPA           CLEAR     54  52  93 CALM      29.88S
TRAVIS AFB     NOT AVBL
SAN FRANCISCO  CLEAR     60  55  83 CALM      29.88F
OAKLAND        PTCLDY    57  53  86 NE3       29.89S
STOCKTON       NOT AVBL
SALINAS        CLEAR     57  51  80 CALM      29.89S
MONTEREY       CLOUDY    54  53  97 SE3       29.90R

$$



USA.gov is the U.S. government's official web portal to all federal, state and local government web resources and services.